�������l�o���
Date,Time,MP-1(��Sv/h),MP-2(��Sv/h),MP-3(��Sv/h),MP-4(��Sv/h),MP-5(��Sv/h),MP-6(��Sv/h),MP-7(��Sv/h),MP-8(��Sv/h),����,����(m/s),���J
2017/10/05,00:00,0.949,1.525,0.983,1.813,1.256,0.510,0.940,0.865,��,2.5,��
2017/10/05,00:10,0.950,1.524,0.983,1.811,1.258,0.508,0.941,0.867,��,1.7,��
2017/10/05,00:20,0.948,1.523,0.983,1.813,1.258,0.510,0.940,0.865,��,0.9,��
2017/10/05,00:30,0.949,1.523,0.983,1.810,1.258,0.509,0.939,0.864,��,1.9,��
2017/10/05,00:40,0.948,1.523,0.983,1.812,1.257,0.510,0.940,0.864,���k��,2.5,��
2017/10/05,00:50,0.947,1.524,0.980,1.809,1.257,0.507,0.940,0.865,�k��,1.7,��
2017/10/05,01:00,0.948,1.525,0.982,1.812,1.254,0.509,0.942,0.865,���쐼,1.4,��
2017/10/05,01:10,0.949,1.524,0.981,1.811,1.258,0.507,0.941,0.864,���쐼,1.4,��
2017/10/05,01:20,0.949,1.521,0.982,1.810,1.257,0.509,0.941,0.865,���쐼,2.6,��
2017/10/05,01:30,0.946,1.524,0.984,1.814,1.253,0.508,0.940,0.863,��,2.3,��
2017/10/05,01:40,0.946,1.524,0.983,1.810,1.258,0.509,0.940,0.865,��,3.7,��
2017/10/05,01:50,0.946,1.522,0.983,1.807,1.256,0.508,0.939,0.865,���k��,2.6,��
2017/10/05,02:00,0.947,1.523,0.983,1.810,1.255,0.507,0.939,0.865,���k��,4.8,��
2017/10/05,02:10,0.945,1.522,0.980,1.809,1.257,0.507,0.938,0.865,���k��,5.8,��
2017/10/05,02:20,0.948,1.522,0.981,1.811,1.257,0.509,0.940,0.865,���k��,4.8,��
2017/10/05,02:30,0.945,1.523,0.982,1.811,1.257,0.509,0.940,0.864,�k��,5.4,��
2017/10/05,02:40,0.946,1.522,0.983,1.808,1.255,0.509,0.939,0.862,���k��,5.2,��
2017/10/05,02:50,0.949,1.522,0.984,1.810,1.256,0.510,0.940,0.864,���k��,4.7,��
2017/10/05,03:00,0.944,1.521,0.982,1.811,1.257,0.508,0.941,0.864,�k��,4.9,��
2017/10/05,03:10,0.949,1.525,0.982,1.812,1.257,0.509,0.938,0.866,�k��,5.3,��
2017/10/05,03:20,0.948,1.521,0.983,1.813,1.255,0.508,0.941,0.863,�k��,4.9,��
2017/10/05,03:30,0.948,1.522,0.982,1.811,1.257,0.509,0.938,0.865,�k��,5.4,��
2017/10/05,03:40,0.949,1.523,0.982,1.811,1.255,0.509,0.941,0.865,�k��,5.1,��
2017/10/05,03:50,0.950,1.525,0.982,1.813,1.257,0.509,0.940,0.864,���k��,4.5,��
2017/10/05,04:00,0.946,1.522,0.982,1.811,1.257,0.508,0.941,0.865,���k��,4.7,��
2017/10/05,04:10,0.946,1.525,0.982,1.811,1.256,0.509,0.939,0.865,���k��,5.3,��
2017/10/05,04:20,0.946,1.521,0.983,1.811,1.258,0.508,0.941,0.867,�k��,5.2,��
2017/10/05,04:30,0.945,1.522,0.983,1.810,1.255,0.508,0.940,0.865,�k��,5.3,��
2017/10/05,04:40,0.948,1.521,0.981,1.810,1.257,0.508,0.940,0.868,�k��,5.7,��
2017/10/05,04:50,0.945,1.522,0.979,1.809,1.256,0.508,0.938,0.865,���k��,5.2,��
2017/10/05,05:00,0.947,1.523,0.982,1.811,1.256,0.507,0.939,0.865,�k��,4.9,��
2017/10/05,05:10,0.946,1.524,0.982,1.811,1.254,0.508,0.938,0.864,���k��,4.8,��
2017/10/05,05:20,0.946,1.523,0.982,1.812,1.256,0.509,0.939,0.864,�k��,5.3,��
2017/10/05,05:30,0.946,1.522,0.980,1.809,1.257,0.508,0.938,0.863,���k��,4.7,��
2017/10/05,05:40,0.945,1.522,0.982,1.810,1.253,0.508,0.939,0.865,�k��,4.9,��
2017/10/05,05:50,0.945,1.522,0.982,1.811,1.256,0.508,0.940,0.863,�k��,4.4,��
2017/10/05,06:00,0.947,1.521,0.981,1.811,1.253,0.508,0.942,0.865,�k��,4.8,��
2017/10/05,06:10,0.946,1.520,0.980,1.813,1.256,0.508,0.941,0.865,�k��,4.4,��
2017/10/05,06:20,0.945,1.521,0.981,1.810,1.255,0.508,0.939,0.863,�k��,5.4,��
2017/10/05,06:30,0.945,1.520,0.980,1.810,1.255,0.505,0.940,0.865,�k��,5.7,��
2017/10/05,06:40,0.945,1.520,0.984,1.811,1.254,0.509,0.939,0.864,�k��,6.0,��
2017/10/05,06:50,0.947,1.526,0.981,1.811,1.256,0.507,0.940,0.864,�k��,6.7,��
2017/10/05,07:00,0.947,1.523,0.981,1.810,1.255,0.509,0.941,0.865,�k��,5.6,��
2017/10/05,07:10,0.945,1.522,0.984,1.812,1.254,0.508,0.941,0.863,�k��,6.0,��
2017/10/05,07:20,0.948,1.524,0.981,1.812,1.255,0.509,0.942,0.867,�k��,5.6,��
2017/10/05,07:30,0.947,1.523,0.983,1.812,1.258,0.509,0.940,0.867,�k��,5.0,��
2017/10/05,07:40,0.948,1.526,0.983,1.813,1.257,0.508,0.941,0.867,�k��,5.9,��
2017/10/05,07:50,0.949,1.525,0.981,1.814,1.259,0.509,0.939,0.866,�k��,5.4,��
2017/10/05,08:00,0.949,1.526,0.984,1.812,1.257,0.508,0.940,0.866,�k��,4.5,��
2017/10/05,08:10,0.948,1.524,0.982,1.814,1.256,0.509,0.940,0.866,�k��,4.1,��
2017/10/05,08:20,0.948,1.524,0.985,1.815,1.259,0.508,0.940,0.867,�k�k��,2.9,��
2017/10/05,08:30,0.948,1.520,0.985,1.814,1.260,0.508,0.937,0.867,�k�k��,3.5,��
2017/10/05,08:40,0.949,1.522,0.981,1.817,1.260,0.509,0.937,0.867,�k�k��,3.3,��
2017/10/05,08:50,0.948,1.522,0.982,1.816,1.259,0.507,0.938,0.868,�k��,2.6,��
2017/10/05,09:00,0.951,1.519,0.984,1.815,1.257,0.508,0.938,0.864,�k,2.6,��
2017/10/05,09:10,0.949,1.519,0.984,1.812,1.259,0.509,0.938,0.865,�k�k��,2.6,��
2017/10/05,09:20,0.947,1.520,0.985,1.815,1.260,0.507,0.938,0.866,�k�k��,2.3,��
2017/10/05,09:30,0.949,1.519,0.985,1.815,1.259,0.508,0.939,0.866,�k��,2.2,��
2017/10/05,09:40,0.947,1.525,0.983,1.814,1.258,0.507,0.939,0.866,���k��,3.1,��
2017/10/05,09:50,0.948,1.521,0.982,1.816,1.259,0.508,0.939,0.866,�k��,3.0,��
2017/10/05,10:00,0.947,1.519,0.983,1.817,1.257,0.506,0.940,0.866,�k��,3.0,��
2017/10/05,10:10,0.947,1.523,0.983,1.815,1.259,0.508,0.938,0.864,�k��,3.2,��
2017/10/05,10:20,0.950,1.524,0.980,1.816,1.258,0.506,0.939,0.864,�k��,4.0,��
2017/10/05,10:30,0.949,1.522,0.982,1.814,1.258,0.507,0.941,0.865,���k��,4.5,��
2017/10/05,10:40,0.949,1.523,0.982,1.816,1.259,0.506,0.941,0.864,�k��,4.0,��
2017/10/05,10:50,0.950,1.521,0.983,1.816,1.258,0.506,0.941,0.865,�k��,4.6,��
2017/10/05,11:00,0.950,1.521,0.981,1.818,1.259,0.506,0.940,0.864,�k��,4.7,��
2017/10/05,11:10,0.950,1.522,0.983,1.818,1.258,0.506,0.940,0.865,�k��,4.7,��
2017/10/05,11:20,0.950,1.525,0.979,1.816,1.258,0.511,0.941,0.864,���k��,4.4,��
2017/10/05,11:30,0.952,1.520,0.980,1.818,1.257,0.508,0.941,0.864,�k��,4.2,��
2017/10/05,11:40,0.950,1.521,0.981,1.817,1.257,0.507,0.942,0.865,�k��,3.9,��
2017/10/05,11:50,0.950,1.524,0.979,1.818,1.264,0.508,0.940,0.866,�k��,3.3,��
2017/10/05,12:00,0.949,1.525,0.982,1.819,1.261,0.508,0.939,0.864,�k�k��,3.5,��
2017/10/05,12:10,0.950,1.526,0.983,1.820,1.261,0.507,0.940,0.864,�k�k��,3.0,��
2017/10/05,12:20,0.952,1.526,0.980,1.819,1.258,0.509,0.939,0.865,�k��,3.5,��
2017/10/05,12:30,0.950,1.528,0.980,1.818,1.261,0.508,0.941,0.867,�k��,3.3,��
2017/10/05,12:40,0.950,1.528,0.980,1.819,1.259,0.508,0.939,0.865,�k��,2.3,��
2017/10/05,12:50,0.950,1.527,0.982,1.818,1.262,0.509,0.941,0.865,�k��,2.0,��
2017/10/05,13:00,0.952,1.526,0.981,1.819,1.262,0.509,0.941,0.865,���k��,2.5,��
2017/10/05,13:10,0.951,1.524,0.981,1.819,1.263,0.508,0.939,0.864,���k��,2.8,��
2017/10/05,13:20,0.948,1.523,0.982,1.818,1.262,0.509,0.941,0.864,���k��,3.2,��
2017/10/05,13:30,0.953,1.523,0.983,1.816,1.262,0.509,0.940,0.863,���k��,2.6,��
2017/10/05,13:40,0.952,1.524,0.983,1.818,1.261,0.510,0.940,0.866,���k��,3.2,��
2017/10/05,13:50,0.951,1.522,0.982,1.822,1.262,0.508,0.942,0.864,��,3.4,��
2017/10/05,14:00,0.952,1.524,0.982,1.822,1.263,0.508,0.941,0.863,��,2.9,��
2017/10/05,14:10,0.951,1.528,0.985,1.821,1.262,0.507,0.942,0.865,��,2.5,��
2017/10/05,14:20,0.949,1.529,0.982,1.818,1.262,0.509,0.941,0.865,��,2.5,��
2017/10/05,14:30,0.952,1.525,0.985,1.819,1.264,0.508,0.941,0.864,��,2.6,��
2017/10/05,14:40,0.952,1.527,0.984,1.818,1.262,0.506,0.940,0.863,���쓌,3.2,��
2017/10/05,14:50,0.952,1.526,0.985,1.818,1.264,0.509,0.941,0.865,��,2.6,��
2017/10/05,15:00,0.949,1.525,0.984,1.821,1.265,0.508,0.941,0.866,���쓌,3.1,��
2017/10/05,15:10,0.951,1.524,0.984,1.823,1.261,0.508,0.941,0.864,���쓌,2.9,��
2017/10/05,15:20,0.949,1.524,0.982,1.820,1.265,0.509,0.940,0.866,�쓌,3.0,��
2017/10/05,15:30,0.950,1.526,0.983,1.820,1.263,0.507,0.938,0.862,�쓌,2.8,��
2017/10/05,15:40,0.950,1.528,0.986,1.820,1.264,0.509,0.939,0.864,�쓌,2.5,��
2017/10/05,15:50,0.951,1.526,0.985,1.821,1.263,0.510,0.941,0.863,�쓌,3.4,��
2017/10/05,16:00,0.949,1.528,0.984,1.819,1.261,0.509,0.940,0.863,�쓌,3.2,��
2017/10/05,16:10,0.950,1.528,0.985,1.817,1.265,0.509,0.940,0.865,�쓌,3.1,��
2017/10/05,16:20,0.950,1.529,0.984,1.818,1.264,0.508,0.939,0.866,�쓌,2.3,��
2017/10/05,16:30,0.951,1.532,0.983,1.821,1.263,0.508,0.943,0.863,��쓌,3.9,��
2017/10/05,16:40,0.950,1.533,0.985,1.818,1.263,0.508,0.941,0.867,��쓌,4.4,��
2017/10/05,16:50,0.951,1.534,0.984,1.815,1.262,0.510,0.943,0.867,�쓌,3.9,��
2017/10/05,17:00,0.950,1.533,0.983,1.821,1.259,0.509,0.942,0.868,��쓌,3.5,��
2017/10/05,17:10,0.950,1.534,0.983,1.817,1.260,0.510,0.943,0.868,�쓌,3.6,��
2017/10/05,17:20,0.949,1.538,0.983,1.818,1.262,0.509,0.942,0.867,�쓌,3.9,��
2017/10/05,17:30,0.952,1.523,0.985,1.818,1.264,0.509,0.943,0.867,��,3.7,��
2017/10/05,17:40,0.953,1.528,0.986,1.820,1.265,0.509,0.942,0.866,��,4.3,��
2017/10/05,17:50,0.953,1.533,0.987,1.821,1.268,0.508,0.942,0.865,��,4.3,��
2017/10/05,18:00,0.951,1.530,0.985,1.820,1.265,0.510,0.942,0.865,��,4.3,��
2017/10/05,18:10,0.948,1.531,0.984,1.819,1.265,0.509,0.941,0.867,��,3.7,��
2017/10/05,18:20,0.949,1.530,0.985,1.818,1.264,0.509,0.941,0.864,��,4.0,��
2017/10/05,18:30,0.950,1.531,0.986,1.818,1.262,0.509,0.942,0.866,��,3.7,��
2017/10/05,18:40,0.951,1.533,0.987,1.817,1.264,0.509,0.941,0.865,��,4.1,��
2017/10/05,18:50,0.950,1.532,0.986,1.819,1.264,0.509,0.941,0.864,��,4.2,��
2017/10/05,19:00,0.949,1.530,0.985,1.816,1.263,0.510,0.942,0.865,��,4.2,��
2017/10/05,19:10,0.950,1.529,0.985,1.815,1.266,0.509,0.943,0.866,��,4.2,��
2017/10/05,19:20,0.950,1.529,0.983,1.818,1.264,0.509,0.942,0.866,��쐼,4.8,��
2017/10/05,19:30,0.954,1.530,0.986,1.818,1.264,0.510,0.940,0.865,��쐼,5.1,��
2017/10/05,19:40,0.954,1.530,0.984,1.816,1.264,0.510,0.941,0.865,��쐼,5.1,��
2017/10/05,19:50,0.953,1.531,0.986,1.820,1.264,0.508,0.939,0.864,��쐼,5.3,��
2017/10/05,20:00,0.953,1.528,0.984,1.819,1.264,0.508,0.940,0.866,��쐼,5.4,��
2017/10/05,20:10,0.956,1.530,0.985,1.819,1.265,0.509,0.940,0.866,��쐼,5.3,��
2017/10/05,20:20,0.952,1.529,0.986,1.816,1.262,0.508,0.941,0.864,��,5.2,��
2017/10/05,20:30,0.955,1.530,0.985,1.816,1.263,0.510,0.941,0.866,��,5.2,��
2017/10/05,20:40,0.951,1.527,0.984,1.818,1.261,0.509,0.941,0.864,��,4.9,��
2017/10/05,20:50,0.953,1.528,0.986,1.816,1.263,0.507,0.941,0.864,��,4.9,��
2017/10/05,21:00,0.952,1.527,0.986,1.816,1.265,0.509,0.941,0.864,��,4.2,��
2017/10/05,21:10,0.954,1.528,0.985,1.815,1.264,0.509,0.939,0.865,��,4.1,��
2017/10/05,21:20,0.953,1.529,0.985,1.815,1.263,0.509,0.940,0.864,��쐼,4.3,��
2017/10/05,21:30,0.955,1.528,0.984,1.816,1.264,0.511,0.941,0.864,��쐼,4.8,��
2017/10/05,21:40,0.953,1.527,0.985,1.817,1.264,0.508,0.940,0.864,��쐼,4.9,��
2017/10/05,21:50,0.952,1.528,0.984,1.815,1.264,0.508,0.940,0.867,��쐼,4.8,��
2017/10/05,22:00,0.953,1.527,0.983,1.814,1.264,0.508,0.942,0.864,��쐼,4.9,��
2017/10/05,22:10,0.950,1.526,0.984,1.816,1.262,0.508,0.943,0.865,��,5.4,��
2017/10/05,22:20,0.952,1.529,0.982,1.817,1.261,0.510,0.942,0.864,��쐼,4.7,��
2017/10/05,22:30,0.951,1.526,0.984,1.817,1.263,0.507,0.941,0.866,��,5.5,��
2017/10/05,22:40,0.951,1.527,0.983,1.818,1.263,0.508,0.941,0.863,��쐼,5.2,��
2017/10/05,22:50,0.955,1.526,0.985,1.814,1.263,0.508,0.941,0.867,��쐼,5.4,��
2017/10/05,23:00,0.953,1.527,0.984,1.816,1.263,0.506,0.941,0.863,��,5.2,��
2017/10/05,23:10,0.952,1.526,0.985,1.815,1.261,0.507,0.940,0.865,��,4.8,��
2017/10/05,23:20,0.953,1.529,0.985,1.814,1.260,0.508,0.940,0.865,��,4.7,��
2017/10/05,23:30,0.953,1.525,0.985,1.814,1.263,0.510,0.942,0.865,��쐼,4.5,��
2017/10/05,23:40,0.953,1.525,0.984,1.815,1.263,0.507,0.941,0.866,��쐼,4.6,��
2017/10/05,23:50,0.952,1.527,0.985,1.816,1.263,0.509,0.940,0.863,��쐼,4.4,��
